Previsão horária em Jurkowo

Hoje, 22 Junho, Terça-feira

Tempo Temperatura Precipitação Vento Pressão Humidade
00:00 +20°C° 0 mm 2 m/s 747 mmHg 89%
01:00 +20°C° 0 mm 2 m/s 746 mmHg 91%
02:00 +20°C° 0.1 mm 2 m/s 747 mmHg 91%
03:00 +20°C° 0.1 mm 2 m/s 747 mmHg 91%
04:00 +20°C° 0.1 mm 1 m/s 747 mmHg 91%
05:00 +22°C° 0.3 mm 1 m/s 747 mmHg 86%
06:00 +23°C° 0.3 mm 1 m/s 748 mmHg 81%
07:00 +24°C° 0.3 mm 1 m/s 748 mmHg 76%
08:00 +26°C° 0.1 mm 1 m/s 748 mmHg 71%
09:00 +27°C° 0.1 mm 1 m/s 748 mmHg 67%
10:00 +28°C° 0.1 mm 1 m/s 749 mmHg 62%
11:00 +29°C° 0.2 mm 2 m/s 749 mmHg 60%
12:00 +30°C° 0.2 mm 2 m/s 749 mmHg 59%
13:00 +30°C° 0.2 mm 3 m/s 749 mmHg 58%
14:00 +30°C° 0.5 mm 3 m/s 749 mmHg 60%
15:00 +29°C° 0.5 mm 3 m/s 749 mmHg 62%
16:00 +29°C° 0.5 mm 3 m/s 749 mmHg 65%
17:00 +27°C° 0.6 mm 4 m/s 750 mmHg 73%
18:00 +25°C° 0.6 mm 5 m/s 750 mmHg 80%
19:00 +22°C° 0.6 mm 5 m/s 750 mmHg 88%
20:00 +21°C° 1 mm 5 m/s 751 mmHg 90%
21:00 +20°C° 1 mm 5 m/s 751 mmHg 92%
22:00 +19°C° 1 mm 5 m/s 752 mmHg 94%
23:00 +19°C° 0.3 mm 5 m/s 752 mmHg 94%

Amanhã, 23 Junho, Quarta-feira

Tempo Temperatura Precipitação Vento Pressão Humidade
00:00 +18°C° 0.3 mm 4 m/s 752 mmHg 95%
01:00 +18°C° 0.3 mm 4 m/s 752 mmHg 95%
02:00 +17°C° 0 mm 4 m/s 752 mmHg 94%
03:00 +15°C° 0 mm 4 m/s 752 mmHg 94%
04:00 +16°C° 0 mm 3 m/s 753 mmHg 94%
05:00 +17°C° 0 mm 3 m/s 753 mmHg 88%
06:00 +18°C° 0 mm 3 m/s 753 mmHg 83%
07:00 +18°C° 0 mm 4 m/s 754 mmHg 77%
08:00 +20°C° 0 mm 4 m/s 754 mmHg 72%
09:00 +21°C° 0 mm 4 m/s 754 mmHg 67%
10:00 +24°C° 0 mm 3 m/s 754 mmHg 61%
11:00 +24°C° 0.2 mm 3 m/s 754 mmHg 63%
12:00 +24°C° 0.2 mm 3 m/s 754 mmHg 64%
13:00 +24°C° 0.2 mm 2 m/s 754 mmHg 65%
14:00 +24°C° 0.2 mm 2 m/s 754 mmHg 65%
15:00 +24°C° 0.2 mm 2 m/s 754 mmHg 65%
16:00 +24°C° 0.2 mm 2 m/s 754 mmHg 66%
17:00 +24°C° 0.3 mm 2 m/s 754 mmHg 71%
18:00 +23°C° 0.3 mm 2 m/s 754 mmHg 76%
19:00 +21°C° 0.3 mm 2 m/s 754 mmHg 81%
20:00 +20°C° 0.1 mm 2 m/s 754 mmHg 82%
21:00 +19°C° 0.1 mm 2 m/s 754 mmHg 84%
22:00 +18°C° 0.1 mm 2 m/s 755 mmHg 85%
23:00 +18°C° 0.1 mm 2 m/s 754 mmHg 86%

Depois de amanhã, 24 Junho, Quinta-feira

Tempo Temperatura Precipitação Vento Pressão Humidade
00:00 +18°C° 0.1 mm 2 m/s 754 mmHg 87%
01:00 +18°C° 0.1 mm 2 m/s 754 mmHg 89%
02:00 +18°C° 0 mm 2 m/s 754 mmHg 89%
03:00 +18°C° 0 mm 2 m/s 754 mmHg 88%
04:00 +18°C° 0 mm 2 m/s 754 mmHg 88%
05:00 +18°C° 0 mm 2 m/s 754 mmHg 87%
06:00 +18°C° 0 mm 2 m/s 754 mmHg 85%
07:00 +19°C° 0 mm 2 m/s 754 mmHg 83%
08:00 +19°C° 0 mm 2 m/s 754 mmHg 80%
09:00 +20°C° 0 mm 2 m/s 755 mmHg 76%
10:00 +21°C° 0 mm 2 m/s 755 mmHg 73%
11:00 +23°C° 0 mm 2 m/s 754 mmHg 69%
12:00 +24°C° 0 mm 2 m/s 754 mmHg 65%
13:00 +26°C° 0 mm 3 m/s 754 mmHg 61%
14:00 +26°C° 0 mm 2 m/s 754 mmHg 60%
15:00 +27°C° 0 mm 2 m/s 754 mmHg 59%
16:00 +27°C° 0 mm 2 m/s 753 mmHg 59%
17:00 +26°C° 0 mm 2 m/s 753 mmHg 64%
18:00 +25°C° 0 mm 2 m/s 753 mmHg 69%
19:00 +24°C° 0 mm 3 m/s 752 mmHg 75%
20:00 +22°C° 0.1 mm 3 m/s 752 mmHg 77%
21:00 +21°C° 0.1 mm 3 m/s 752 mmHg 79%
22:00 +20°C° 0.1 mm 3 m/s 752 mmHg 81%
23:00 +20°C° 0.6 mm 3 m/s 751 mmHg 85%

25 Junho, Sexta-feira

Tempo Temperatura Precipitação Vento Pressão Humidade
00:00 +19°C° 0.6 mm 4 m/s 751 mmHg 89%
01:00 +19°C° 0.6 mm 4 m/s 750 mmHg 92%
02:00 +19°C° 5.9 mm 4 m/s 750 mmHg 94%
03:00 +18°C° 5.9 mm 4 m/s 749 mmHg 96%
04:00 +18°C° 5.9 mm 4 m/s 749 mmHg 98%
05:00 +18°C° 0.5 mm 4 m/s 749 mmHg 97%
06:00 +18°C° 0.5 mm 4 m/s 749 mmHg 96%
07:00 +18°C° 0.5 mm 4 m/s 750 mmHg 95%
08:00 +19°C° 0 mm 4 m/s 750 mmHg 93%
09:00 +19°C° 0 mm 4 m/s 750 mmHg 91%
10:00 +19°C° 0 mm 4 m/s 750 mmHg 89%
11:00 +19°C° 0 mm 5 m/s 751 mmHg 86%
12:00 +19°C° 0 mm 5 m/s 751 mmHg 83%
13:00 +20°C° 0 mm 6 m/s 751 mmHg 80%
14:00 +20°C° 0 mm 6 m/s 752 mmHg 79%
15:00 +20°C° 0 mm 6 m/s 752 mmHg 77%
16:00 +20°C° 0 mm 5 m/s 752 mmHg 75%
17:00 +19°C° 0 mm 5 m/s 752 mmHg 78%
18:00 +19°C° 0 mm 4 m/s 752 mmHg 81%
19:00 +18°C° 0 mm 4 m/s 753 mmHg 84%
20:00 +17°C° 0 mm 4 m/s 753 mmHg 87%
21:00 +17°C° 0 mm 4 m/s 753 mmHg 90%
22:00 +15°C° 0 mm 4 m/s 753 mmHg 94%
23:00 +15°C° 0 mm 4 m/s 753 mmHg 95%

26 Junho, Sábado

Tempo Temperatura Precipitação Vento Pressão Humidade
00:00 +14°C° 0 mm 4 m/s 753 mmHg 96%
01:00 +14°C° 0 mm 3 m/s 753 mmHg 96%
02:00 +14°C° 0 mm 4 m/s 753 mmHg 95%
03:00 +14°C° 0 mm 4 m/s 753 mmHg 94%
04:00 +15°C° 0 mm 4 m/s 753 mmHg 92%
05:00 +15°C° 0 mm 4 m/s 753 mmHg 90%
06:00 +17°C° 0 mm 4 m/s 753 mmHg 88%
07:00 +16°C° 0 mm 5 m/s 753 mmHg 86%
08:00 +19°C° 0 mm 5 m/s 753 mmHg 80%
09:00 +20°C° 0 mm 5 m/s 754 mmHg 74%
10:00 +21°C° 0 mm 6 m/s 754 mmHg 69%
11:00 +22°C° 0.1 mm 5 m/s 754 mmHg 68%
12:00 +22°C° 0.1 mm 5 m/s 754 mmHg 68%
13:00 +22°C° 0.1 mm 4 m/s 754 mmHg 67%
14:00 +22°C° 0.2 mm 4 m/s 753 mmHg 67%
15:00 +22°C° 0.2 mm 4 m/s 753 mmHg 67%
16:00 +23°C° 0.2 mm 4 m/s 753 mmHg 68%
17:00 +22°C° 0.1 mm 4 m/s 753 mmHg 72%
18:00 +21°C° 0.1 mm 3 m/s 753 mmHg 77%
19:00 +20°C° 0.1 mm 2 m/s 753 mmHg 82%
20:00 +19°C° 0 mm 2 m/s 753 mmHg 84%
21:00 +18°C° 0 mm 2 m/s 753 mmHg 87%
22:00 +17°C° 0 mm 2 m/s 754 mmHg 89%
23:00 +18°C° 0 mm 1 m/s 753 mmHg 90%

27 Junho, Domingo

Tempo Temperatura Precipitação Vento Pressão Humidade
00:00 +16°C° 0 mm 1 m/s 753 mmHg 90%
01:00 +15°C° 0 mm 1 m/s 753 mmHg 91%
02:00 +15°C° 0 mm 1 m/s 753 mmHg 92%
03:00 +15°C° 0 mm 1 m/s 753 mmHg 93%
04:00 +15°C° 0 mm 1 m/s 754 mmHg 94%
05:00 +16°C° 0 mm 2 m/s 754 mmHg 90%
06:00 +18°C° 0 mm 2 m/s 754 mmHg 86%
07:00 +19°C° 0 mm 2 m/s 754 mmHg 82%
08:00 +20°C° 0 mm 2 m/s 754 mmHg 76%
09:00 +21°C° 0 mm 3 m/s 754 mmHg 70%
10:00 +22°C° 0 mm 3 m/s 754 mmHg 65%
11:00 +24°C° 0 mm 3 m/s 754 mmHg 62%
12:00 +25°C° 0 mm 3 m/s 754 mmHg 59%
13:00 +25°C° 0 mm 2 m/s 754 mmHg 56%
14:00 +25°C° 0 mm 2 m/s 754 mmHg 59%
15:00 +25°C° 0 mm 2 m/s 754 mmHg 61%
16:00 +24°C° 0 mm 2 m/s 754 mmHg 64%
17:00 +24°C° 0.2 mm 2 m/s 754 mmHg 67%
18:00 +23°C° 0.2 mm 1 m/s 754 mmHg 70%
19:00 +22°C° 0.2 mm 1 m/s 754 mmHg 73%
20:00 +21°C° 0.1 mm 1 m/s 754 mmHg 76%
21:00 +20°C° 0.1 mm 1 m/s 754 mmHg 80%
22:00 +19°C° 0.1 mm 1 m/s 754 mmHg 83%
23:00 +18°C° 0 mm 1 m/s 754 mmHg 85%
Mostrar mais

Necessitamos do seu Consentimento

A Meteoprog e os seus Fornecedores de Serviços podem armazenar e aceder a dados pessoais como cookies, identificadores do dispositivo ou outras tecnologias semelhantes existentes no seu dispositivo e processar estes dados para personalizar conteúdos e anúncios, assim como funcionalidades nas redes sociais e análise de tráfego.

  • Armazenar e/ou aceder a informações no seu dispositivo

    Os cookies, identificadores do dispositivo ou outras informações podem ser armazenados ou acedidos no seu dispositivo, para os fins acima indicados.

  • Anúncios e conteúdos personalizados, medição de anúncios e conteúdos, dados sobre o público-alvo e desenvolvimento de produtos

    Os anúncios e os conteúdos podem ser personalizados com base num perfil. Podem ser adicionados dados adicionais para uma maior personalização dos anúncios e dos conteúdos. A eficácia dos anúncios e dos conteúdos pode ser medida. Podem ser obtidas informações sobre o público que visualizou os anúncios e os conteúdos. Estes dados podem ser usados para desenvolver ou melhorar sistemas, softwares ou a experiência do utilizador.

Ao clicar em "Eu concordo”, permitirá o uso de cookies, identificadores do dispositivo e web beacons mencionados ou outras tecnologias semelhantes. As configurações do navegador do seu dispositivo podem ser alteradas.

Para certos fins, podem ser invocados interesses legítimos ao invés de consentimento. Pode ler mais informação sobre este assunto na nossa Política de Privacidade e Cookies.